Location: *
(23.5860°S, 65.4036°W)
Time: 02:20:14
(UTC+00:00)

Cosmos 1898 Rocket - Pass Details

Date: 25 August 2019
Orbit: 754 x 783 km, 74.0° (Epoch: 17 October)

Event Time Altitude Azimuth Distance (km) Brightness Sun altitude
Rises 22:26:49 0° 184° (S) 3,294 6.7 -4.9°
Reaches altitude 10° 22:29:22 10° 176° (S) 2,359 5.9 -5.5°
Maximum altitude 22:34:23 39° 108° (ESE) 1,160 4.0 -6.6°
Drops below altitude 10° 22:39:19 10° 39° (NE) 2,327 5.7 -7.8°
Sets 22:41:49 0° 31° (NNE) 3,243 6.5 -8.3°
